Regional Weather Roundup
Issued by NWS

Home | Current Version | Previous Version | Text Only | Print | Product List | Glossary On
Versions: 1 2 3 4 5 6 7 8 9 10 11 12 13 14 15 16 17 18 19 20 21 22 23 24 25 26 27 28 29 30 31 32 33 34 35 36 37 38 39 40 41 42
000
ASPQ40 PGUM 260412
RWRPQ
WEATHER ROUNDUP FOR THE MARIANAS AND MICRONESIA
NATIONAL WEATHER SERVICE TIYAN GU
200 PM CHST FRI DEC 26 2014

GUZ001>004-260500-
MARIANA ISLANDS-

CITY           SKY/WX    TMP DP  RH WIND       PRES   REMARKS
GUAM AIRPORT   NOT AVBL
ANDERSEN AFB   PTSUNNY   81  75  83 E18G28    29.80F
ROTA AIRPORT   PTSUNNY   79  75  89 E12       29.82F
TINIAN AP      PTSUNNY   84  73  70 E15       29.81F HX  91
SAIPAN AP      MOSUNNY   86  73  66 E18       29.82F HX  93

$$

PMZ161-260500-
REPUBLIC OF PALAU-

CITY           SKY/WX    TMP DP  RH WIND       PRES   REMARKS
KOROR AP       CLOUDY    82  79  89 NE10      29.70F HX  93
KOROR WSO      CLOUDY    84  79  84 E6        29.67F HX  96

$$

PMZ171>174-260500-
FEDERATED STATES OF MICRONESIA-

CITY           SKY/WX    TMP DP  RH WIND       PRES   REMARKS
YAP AIRPORT    PTSUNNY   82  79  89 E13       29.68F HX  93
CHUUK AP       CLOUDY    86  77  74 NE9       29.70F HX  97
POHNPEI AP     CLOUDY    84  77  79 E15       29.69F HX  94
POHNPEI WSO    CLOUDY    82  75  78 NE6G17    29.73F
KOSRAE AP      CLOUDY    86  73  66 E6        29.68F HX  93

$$

PMZ181-260500-
REPUBLIC OF THE MARSHALL ISLANDS-

CITY           SKY/WX    TMP DP  RH WIND       PRES   REMARKS
KWAJALEIN AP   MOSUNNY   86  68  54 NE26G32   29.73R
MAJURO AP      NOT AVBL
MAJURO WSO     CLOUDY    82  75  78 NE21      29.70S

$$



USA.gov is the U.S. government's official web portal to all federal, state and local government web resources and services.